Simultaneous Nadir Overpasses (SNOs) Predictions

Prediction of SNOs between METOP-A and NOAA-19 Satellite Orbit:

Table of predicted SNOs for the next 14.0 days since TLE Epoch: 2/23/2018
Index Date (METOP-A) Time (METOP-A) Lat,Lon (METOP-A) SZA (METOP-A ) Date (NOAA-19) Time (NOAA-19) Lat,Lon (NOAA-19) SZA (NOAA-19 ) Distance(km) Time Diff (sec)
1 03/05/2018 13:02:33 -78.24, 172.02 95.84 03/05/2018 13:01:27 -78.21, 171.98 95.88 3.66 66
2 03/05/2018 13:53:14 78.22, -20.81 84.12 03/05/2018 13:52:29 78.23, -20.91 84.13 3.07 45
3 03/05/2018 14:43:55 -78.22, 146.57 95.89 03/05/2018 14:43:28 -78.20, 146.54 95.91 2.43 27
4 03/05/2018 15:34:36 78.19, -46.26 84.07 03/05/2018 15:34:29 78.19, -46.12 84.06 3.28 7
5 03/05/2018 16:25:17 -78.20, 121.12 95.94 03/05/2018 16:25:29 -78.19, 121.09 95.95 1.22 12
6 03/05/2018 17:15:58 78.17, -71.71 84.02 03/05/2018 17:16:30 78.18, -71.56 84.03 3.45 32
7 03/05/2018 18:06:39 -78.18, 95.67 95.99 03/05/2018 18:07:30 -78.18, 95.65 95.99 0.39 51
8 03/05/2018 18:57:19 78.19, -96.95 84.01 03/05/2018 18:58:31 78.17, -97.00 83.99 3.18 72




NCC Satellite Simultaneous Nadir Overpasses (SNOs) Prediction Service
